Location: Unspecified
(22.6800°N, 112.2000°E)
Time: 01:31:59
(UTC+08:00)

Courier 1B Rocket - Pass Details

Date: 08 August 2021
Orbit: 920 x 1202 km, 28.3° (Epoch: 17 September)

Event Time Altitude Azimuth Distance (km) Brightness Sun altitude
Exits shadow 04:32:59 28° 278° (W) 1,752 5.9 -20.4°
Maximum altitude 04:36:37 69° 203° (SSW) 1,022 4.9 -19.7°
Drops below altitude 10° 04:42:53 10° 120° (ESE) 2,626 7.7 -18.4°
Sets 04:45:27 0° 118° (ESE) 3,553 8.5 -17.9°
